Location: Hartha
(51.1030°N, 12.9600°E)
Time: 04:09:29
(UTC+01:00)

Daily predictions for brighter satellites

Satellite Brightness Start Highest point End
(mag) Time Altitude Azimuth Time Altitude Azimuth Time Altitude Azimuth
ATLAS 3B R/B 4.4 03:12:10 30° NNE 03:12:10 30° NNE 03:17:15 10° ENE
Cosmos 2360 Rocket 3.9 03:53:44 28° E 03:53:44 28° E 03:56:43 10° ESE
NOSS 3-1 (A) 4.1 04:05:47 67° ESE 04:05:47 67° ESE 04:13:15 10° SE
Cosmos 2219 Rocket 3.6 04:05:59 34° ENE 04:05:59 34° ENE 04:10:33 10° ESE
Cosmos 2333 Rocket 3.7 04:15:00 30° SE 04:15:00 30° SE 04:17:47 10° SE
Cosmos 2322 Rocket 3.2 04:20:25 42° ESE 04:20:25 42° ESE 04:24:12 10° SE
USA 234 3.5 04:14:51 10° ENE 04:20:27 63° NNE 04:20:27 63° NNE
Cosmos 2333 4.3 04:45:09 73° ENE 04:45:09 73° ENE 04:50:42 10° SE
SL-16 R/B 3.8 04:53:22 21° S 04:53:22 21° S 04:55:17 10° S
Cosmos 2082 Rocket 3.6 04:54:55 25° N 04:54:55 25° N 04:57:34 10° NNE
ACS3 Solar Sail 4.0 04:47:47 10° N 04:47:55 11° N 04:47:55 11° N
COSMOS 2406 3.8 05:02:39 44° N 05:02:39 44° N 05:06:46 10° NNE
Cosmos 2026 Rocket 3.9 04:55:12 10° S 05:01:16 83° E 05:07:27 10° N
ATLAS 3B R/B 3.5 04:59:25 33° NNW 05:02:50 53° NNE 05:10:17 10° ESE
COSMOS 2428 4.0 05:00:11 23° N 05:02:53 35° NE 05:08:04 10° ESE
SL-4 R/B 4.4 05:11:13 11° SSE 05:11:13 11° SSE 05:11:23 10° SSE
Cosmos 2285 Rocket 3.9 05:08:11 45° NNW 05:10:22 88° WSW 05:16:48 10° SSE
Meteor 2-3 Rocket 3.8 05:13:13 59° NNW 05:13:13 59° NNW 05:18:07 10° N
Meteor 2-20 4.3 05:15:08 60° WNW 05:15:40 63° W 05:21:38 10° S
Cosmos 1743 4.5 05:13:08 10° SSE 05:15:54 26° E 05:18:41 10° NNE
Meteor 2-2 Rocket 4.1 05:16:04 55° NW 05:17:15 72° W 05:23:02 10° S
Meteor 1-26 Rocket 4.1 05:17:15 63° WNW 05:17:52 69° W 05:23:34 10° S
CZ-2C R/B 4.4 05:15:13 10° N 05:16:24 17° N 05:16:24 17° N
Cosmos 2221 3.5 05:20:56 22° NNE 05:23:18 44° ENE 05:27:15 10° SSE
Cosmos 1812 Rocket 4.4 05:24:10 18° N 05:27:12 48° ENE 05:31:25 10° SSE
Cosmos 1707 4.2 05:26:26 23° NE 05:27:21 27° ENE 05:30:03 10° SE
SL-16 R/B 4.5 05:27:41 10° N 05:30:51 15° NNE 05:34:00 10° ENE
ATLAS 5 CENTAUR R/B 3.6 05:31:41 12° NNE 05:31:41 12° NNE 05:32:49 10° NNE
Cosmos 1553 Rocket 4.0 05:24:57 10° N 05:31:24 90° W 05:37:50 10° S
Cosmos 2360 Rocket 2.5 05:35:32 44° WSW 05:35:32 44° WSW 05:40:45 10° S
Cosmos 1092 Rocket 3.9 05:29:20 10° SSW 05:35:33 66° WNW 05:41:45 10° N
Meteor 2-20 Rocket 4.2 05:33:43 31° NNW 05:36:20 60° W 05:41:56 10° S
Cosmos 1125 Rocket 3.4 05:36:25 31° NNW 05:39:01 86° ENE 05:44:15 10° SSE
SeaSat 1 3.3 05:37:09 10° NNE 05:40:46 32° NNW 05:40:46 32° NNW
IRIDIUM 106 4.4 05:36:23 10° S 05:41:35 76° E 05:46:49 10° N
ISS -0.7 05:40:16 10° S 05:42:06 14° SE 05:43:56 10° ESE
ATLAS 2AS CENTAUR R/B 3.2 05:36:08 10° SSW 05:43:02 62° SE 05:49:48 10° NE
FengYun 1-2 T 4.3 05:41:25 10° N 05:46:55 54° WNW 05:52:23 10° SW
NOAA 12 3.9 05:42:05 10° NNE 05:47:23 76° WNW 05:52:37 10° SSW
Cosmos 2219 Rocket 2.3 05:47:44 37° WNW 05:49:39 55° WSW 05:55:06 10° S
Cosmos 2237 Rocket 3.5 05:46:26 13° NNW 05:50:55 35° NE 05:56:02 10° ESE
SKYMED 2 4.2 05:50:12 10° SSW 05:53:38 36° WSW 05:53:38 36° WSW
Cosmos 2333 Rocket 3.6 05:57:04 21° WSW 05:57:04 21° WSW 06:00:06 10° SSW
Orbus 7S? 3.7 05:56:30 31° SSW 05:56:30 31° SSW 05:58:32 10° SSE
COSMO-SKYMED 1 2.6 05:52:26 10° S 05:56:26 50° W 05:57:06 45° WNW
Cosmos 1833 4.1 05:51:38 10° SW 05:57:18 79° WNW 06:03:03 10° NNE
IRS-1D 3.5 05:54:40 10° N 05:59:36 56° WNW 06:04:36 10° SW
Cosmos 2266 Rocket 4.4 05:55:11 10° S 06:01:29 69° E 06:07:42 10° NNE
Cosmos 2322 Rocket 3.2 06:02:16 26° WSW 06:02:16 26° WSW 06:06:45 10° SSW
USA 234 3.6 05:57:43 10° ENE 06:04:03 54° N 06:07:47 25° WNW
RUBIN 8/PSLV 4.4 06:03:36 10° NNE 06:07:55 75° WNW 06:12:09 10° SSW
Cosmos 1417 Rocket 4.4 06:03:41 10° N 06:09:51 83° W 06:16:02 10° S
Cosmos 1758 Rocket 3.6 06:07:40 10° SSW 06:11:59 55° WNW 06:16:17 10° N
Cosmos 1238 Rocket 2.7 06:10:41 16° N 06:12:47 52° ENE 06:15:41 10° SSE
Cosmos 1484 Rocket 2.2 06:14:17 10° NNE 06:17:41 79° WNW 06:21:03 10° SSW
Helios 1A Rocket 3.4 06:15:40 10° SSW 06:18:10 27° WSW 06:18:10 27° WSW
Cosmos 2322 3.6 06:16:04 17° NW 06:20:32 73° WSW 06:26:10 10° SSE
ARIANE 5 R/B 4.1 06:16:16 10° NNE 06:21:10 39° E 06:26:02 10° SSE
USA 229 4.0 06:17:38 18° NW 06:23:22 77° SW 06:31:29 10° SSE
USA 229 DEB 4.0 06:17:42 18° NW 06:23:27 77° SW 06:31:34 10° SSE
Cosmos 158 Rocket 4.3 06:20:38 10° SW 06:25:38 42° WNW 06:30:33 10° NNE
Cosmos 1626 Rocket 4.2 06:28:37 10° SW 06:32:32 31° WNW 06:36:28 10° N
Cosmos 1842 2.8 06:32:03 14° NNW 06:34:51 60° W 06:38:06 10° S
CZ-4 R/B 4.5 06:31:07 10° N 06:35:09 31° WNW 06:39:11 10° WSW
CORIOLIS 4.5 06:31:51 10° NNE 06:37:16 72° ESE 06:42:40 10° S
Cosmos 2082 Rocket 3.9 06:36:45 13° NW 06:37:57 14° NNW 06:40:53 10° N
Cosmos 1437 Rocket 3.2 06:36:30 21° NW 06:38:03 31° W 06:41:10 10° SSW
Cosmos 2151 3.1 06:34:34 10° SSW 06:38:31 46° WNW 06:42:31 10° N
Meteor 1-19 Rocket 4.5 06:32:52 10° NNW 06:38:32 52° W 06:44:17 10° S
CBERS-1 3.9 06:34:57 10° NNE 06:40:03 77° WNW 06:45:08 10° SSW
Cosmos 836 Rocket 4.5 06:35:25 10° SSW 06:40:37 90° ENE 06:45:52 10° NNE
Cosmos 1818 3.8 06:36:01 13° NW 06:40:50 69° NE 06:46:15 10° SE
Meteor 1-10 Rocket 4.5 06:35:35 10° NNW 06:41:20 54° W 06:47:05 10° S
Cosmos 773 Rocket 4.1 06:37:43 10° SSW 06:42:49 78° ESE 06:48:00 10° NNE
Cosmos 2150 Rocket 4.1 06:38:02 10° NNW 06:43:31 76° WSW 06:48:52 10° SSE
SMAP 3.1 06:42:29 10° NNE 06:47:11 89° ESE 06:51:51 10° SSW
COSMOS 2428 2.9 06:42:11 12° NW 06:47:22 54° WSW 06:52:54 10° S
BREEZE-M DEB (TANK) 3.5 06:45:56 16° W 06:48:10 64° S 06:55:14 10° ESE
Cosmos 1743 3.5 06:46:54 10° WSW 06:49:26 21° WNW 06:52:00 10° NNW
BREEZE-M DEB (TANK) 2.6 06:48:00 17° W 06:49:47 61° S 06:52:05 10° ESE
Landsat 7 3.9 06:46:06 10° NNE 06:50:48 82° ESE 06:55:26 10° SSW
NOSS 0 Rocket 4.0 06:44:37 10° NW 06:50:49 68° WSW 06:56:59 10° SSE
Cosmos 1570 Rocket 4.0 06:46:00 10° SSW 06:51:18 70° WNW 06:56:40 10° NNE
MOS 1 Rocket 3.9 06:46:49 10° NNE 06:52:12 71° E 06:57:23 10° S
ATLAS 3B R/B 3.1 06:46:39 12° NW 06:53:52 60° WSW 07:01:09 10° SSE
Cosmos 1842 Rocket 3.6 06:50:27 10° N 06:54:47 82° E 06:59:07 10° SSE
Cosmos 44 3.2 06:51:37 10° SW 06:56:16 81° NW 07:01:17 10° NE
Cosmos 2221 3.7 06:57:19 12° NW 07:00:04 20° W 07:03:07 10° SW
Cosmos 1707 3.7 06:58:57 14° NW 07:00:23 19° W 07:02:40 10° SW
ATLAS CENTAUR R/B 3.5 07:05:15 10° S 07:08:02 25° ESE 07:10:51 10° ENE
CZ-2D R/B 2.8 07:07:18 10° N 07:10:26 56° WNW 07:13:32 10° SSW
IGS 5A 4.2 07:07:10 10° N 07:10:36 28° WNW 07:14:03 10° SW
Resurs 01 Rocket 4.4 07:08:27 10° NE 07:11:42 20° E 07:14:56 10° SE
Cosmos 2315 Rocket 4.3 07:05:49 10° NNW 07:11:51 47° W 07:17:48 10° SSW
Cosmos 1066 Rocket 4.2 07:06:50 10° NNW 07:12:18 90° ENE 07:17:51 10° S
Thor Agena Rocket 3.5 07:07:48 10° N 07:12:47 60° WNW 07:17:42 10° SSW
ATLAS 5 CENTAUR R/B 3.2 07:11:46 10° NNW 07:14:44 21° NNE 07:18:10 10° ENE
SL-08 R/B 3.3 07:10:54 10° SSE 07:15:33 89° WSW 07:20:20 10° NNW
SL-16 R/B 3.2 07:11:05 10° NNW 07:16:31 43° NE 07:21:54 10° ESE
SeaSat 1 4.3 07:16:06 10° N 07:17:47 12° NNW 07:19:28 10° NW
ISS -2.9 07:15:01 10° SW 07:18:19 53° SSE 07:21:37 10° E
Cosmos 2297 Rocket 2.5 07:12:59 10° SSW 07:18:37 74° ESE 07:24:17 10° NNE
Cosmos 1805 2.9 07:16:50 10° S 07:20:11 87° E 07:23:34 10° N
ERS-1 4.5 07:15:13 10° NNE 07:20:12 85° WNW 07:25:11 10° SSW
Cosmos 1980 3.9 07:17:38 10° NW 07:23:15 61° WSW 07:28:49 10° SSE
YAOGAN 11 4.0 07:19:14 10° S 07:23:33 76° WSW 07:27:50 10° NNW
SAR-Lupe-4 3.8 07:24:24 10° N 07:27:50 45° WNW 07:31:14 10° SW
SKYMED 3 4.5 07:25:39 10° S 07:29:36 58° W 07:33:32 10° NNW
COBE Rocket 3.9 07:25:16 10° SSE 07:29:52 79° ENE 07:34:33 10° N
Meteor 1-27 Rocket 4.5 07:25:51 10° NNW 07:31:01 34° W 07:36:03 10° SSW
Meteor 2-4 Rocket 4.0 07:26:14 10° NNW 07:31:25 46° W 07:36:42 10° SSW
IRS-P3 4.2 07:26:05 10° NNE 07:31:26 85° WNW 07:36:44 10° SSW
Cosmos 1655 Rocket 4.2 07:25:16 10° SSW 07:31:27 54° WNW 07:37:37 10° N
ATLAS 2AS CENTAUR R/B 3.0 07:27:30 10° WSW 07:34:13 48° NNW 07:40:48 10° NE
